User: anonymous   Login
Location: Lamoine Observatory
(44.4551°N, 68.3470°W)
Time: 19:23:09
(UTC-05:00)
Language:

Cosmos 1674 Rocket - Orbit

View from above orbital plane
View from above orbital plane
View from above satellite
View from above satellite

Ground track
Ground track

The orbit data is extracted from the following two-line orbital elements,

1 15945U 85069B   15029.64676187  .00000530  00000-0  61365-4 0  8828
2 15945 082.5251 227.2032 0018454 270.4337 131.9878 14.83573976592090
Epoch (UTC): 29 January 2015 15:31:20
Eccentricity: 0.0018454
inclination: 82.5251°
perigee height: 605 km
apogee height: 631 km
right ascension of ascending node: 227.2032°
argument of perigee: 270.4337°
revolutions per day: 14.83573976
mean anomaly at epoch: 131.9878°
orbit number at epoch: 59209

The dashed part of the orbit path shows where the satellite is in the earth's shadow,  

DLR